SCP
9 10 10 9 7 6 5 6 5 4 4 3 3 3 3 2 2 2 2 2 2 2 2 2 2 2 2 2 1 1 1 1 1 0 0 0 0 0 0 1 1 1 1
10 10 10 11 10 9 8 7 6 5 5 4 4 3 3 3 3 2 2 2 2 2 2 2 2 2 2 2 2 1 1 1 1 0 0 0 0 0 0 1 1 1 1
11 11 12 13 12 12 10 9 8 7 6 5 5 4 4 3 3 3 2 2 2 2 2 2 2 2 2 2 2 2 1 1 1 0 0 0 0 0 0 0 0 0 0
12 13 13 13 13 13 12 10 8 7 6 5 5 4 4 3 3 2 2 1 1 1 1 1 2 2 2 2 2 2 1 1 1 0 0 0 0 0 0 0 0 0 0
13 13 12 11 11 11 10 8 6 5 4 4 3 3 3 2 2 1 1 1 1 1 1 1 1 1 2 2 2 1 1 1 1 0 0 0 0 0 0 0 0 0 0
12 11 9 8 8 8 7 6 4 3 3 2 2 2 2 2 1 1 1 1 0 0 0 1 1 1 1 1 1 1 1 1 1 0 0 0 0 0 0 0 0 0 0
10 8 7 6 5 5 4 4 3 2 2 1 1 1 1 1 1 1 1 1 0 0 0 0 0 0 0 1 1 1 1 0 1 1 1 0 0 0 0 0 0 0 0
7 6 5 4 3 3 3 2 2 2 2 1 1 1 1 1 1 1 0 0 0 0 0 0 0 0 0 0 0 0 0 0 1 1 1 0 0 0 0 0 0 0 0
4 4 3 3 2 2 2 2 2 2 2 1 1 1 1 1 0 0 0 0 0 0 0 0 0 0 0 0 0 0 0 0 0 1 1 0 0 0 0 0 0 0 0
2 2 2 2 2 2 1 1 1 1 1 1 1 1 1 0 0 0 0 0 0 0 0 0 0 0 0 0 0 0 0 0 0 0 0 0 0 0 0 0 0 0 0
1 1 1 1 1 1 1 1 1 1 0 0 0 0 0 0 0 0 0 0 0 0 0 0 0 0 0 0 0 0 0 0 0 0 0 0 0 0 0 0 0 0 0
0 0 0 0 0 0 0 0 0 0 0 0 0 0 0 0 0 0 0 0 0 0 0 0 0 0 0 0 0 0 0 0 0 0 0 0 0 0 0 0 0 0 0
0 0 0 0 0 0 0 0 0 0 0 0 0 0 0 0 0 0 0 0 0 0 0 0 0 0 0 0 0 0 0 0 0 0 0 0 0 0 0 0 0 0 0
0 0 0 0 0 0 0 0 0 0 0 0 0 0 0 0 0 0 0 0 0 0 0 0 0 0 0 0 0 0 0 0 0 0 0 0 0 0 0 0 0 0 0
0 0 0 0 0 0 0 0 0 0 0 0 0 0 0 0 0 0 0 0 0 0 0 0 0 0 0 0 0 0 0 0 0 0 0 0 0 0 0 0 0 0 0
0 0 0 0 0 0 0 0 0 0 0 0 0 0 0 0 0 0 0 0 0 0 0 0 0 0 0 0 0 0 0 0 0 0 0 0 0 0 0 0 0 0 0
0 0 0 0 0 0 0 0 0 0 0 0 0 0 0 0 0 0 0 0 0 0 0 0 0 0 0 0 0 0 0 0 0 0 0 0 0 0 0 0 0 0 0
0 0 0 0 0 0 0 0 0 0 0 0 0 0 0 0 0 0 0 0 0 0 0 0 0 0 0 0 0 0 0 0 0 0 0 0 0 0 0 0 0 0 0
0 0 0 0 0 0 0 0 0 0 0 0 0 0 0 0 0 0 0 0 0 0 0 0 0 0 0 0 0 0 0 0 0 0 0 0 0 0 0 0 0 0 0
0 0 0 0 0 0 0 0 0 0 0 0 0 0 0 0 0 0 0 0 0 0 0 0 0 0 0 0 0 0 0 0 0 0 0 0 0 0 0 0 0 0 0
0 0 0 0 0 0 0 0 0 0 0 0 0 0 0 0 0 0 0 0 0 0 0 0 0 0 0 0 0 0 0 0 0 0 0 0 0 0 0 0 0 0 0
0 0 0 0 0 0 0 0 0 0 0 0 0 0 0 0 0 0 0 0 0 0 0 0 0 0 0 0 0 0 0 0 0 0 0 0 0 0 0 0 0 0 0
0 0 0 0 0 0 0 0 0 0 0 0 0 0 0 0 0 0 0 0 0 0 0 0 0 0 0 0 0 0 0 0 0 0 0 0 0 0 0 0 0 0 0
0 0 0 0 0 0 0 0 0 0 0 0 0 0 0 0 0 0 0 0 0 0 0 0 0 0 0 0 0 0 0 0 0 0 0 0 0 0 0 0 0 0 0
0 0 0 0 0 0 0 0 0 0 0 0 0 0 0 0 0 0 0 0 0 0 0 0 0 0 0 0 0 0 0 0 0 0 0 0 0 0 0 0 0 0 0
0 0 0 0 0 0 0 0 0 0 0 0 0 0 0 0 0 0 0 0 0 0 0 0 0 0 0 0 0 0 0 0 0 0 0 0 0 0 0 0 0 0 0
Wind_Speed
8 7 8 6 4 5 6 6 5 5 4 3 3 2 2 1 1 1 2 1 2 3 3 3 4 4 5 6 6 4 5 5 3 2 4 4 5 5 5 4 4 4 6
10 10 9 8 8 7 7 5 3 3 4 3 3 2 2 1 1 1 3 3 2 2 2 4 4 5 5 6 6 5 4 4 3 4 2 3 4 3 3 3 4 4 6
14 11 10 9 8 7 6 6 4 4 5 4 3 3 3 2 3 3 3 4 4 4 4 5 5 6 6 6 7 7 7 5 4 4 4 3 4 3 3 2 3 4 4
8 9 10 9 9 8 6 6 5 5 5 5 5 4 3 2 1 1 2 3 4 4 5 5 6 7 6 7 8 7 6 6 5 4 4 4 4 3 2 3 2 3 6
6 6 6 7 8 7 7 6 6 6 5 5 5 5 3 2 0 1 2 3 3 4 6 6 6 6 6 8 8 7 7 6 6 4 3 3 2 3 3 3 3 2 3
6 5 4 4 5 5 5 5 5 5 4 5 5 5 4 2 2 2 2 2 2 3 6 7 6 6 5 6 6 6 7 5 5 4 3 3 3 3 3 3 3 4 4
6 5 4 3 3 4 4 4 5 4 4 5 5 4 4 3 3 1 1 1 2 2 5 6 6 6 5 4 3 2 3 3 4 4 3 3 3 2 2 2 2 2 3
3 4 4 2 2 3 4 5 6 5 5 5 4 4 4 3 2 2 1 1 1 2 4 5 5 6 6 6 5 3 2 0 1 2 2 2 2 2 2 2 1 1 2
1 2 3 2 2 3 3 4 6 5 4 4 4 4 3 3 3 2 2 2 2 2 3 4 4 4 5 5 5 4 5 4 2 1 0 1 1 1 1 1 1 1 2
2 1 1 2 1 2 3 3 4 4 3 3 3 3 3 3 3 2 2 2 2 3 4 4 4 4 4 4 3 3 3 4 3 2 2 2 1 1 1 1 1 2 3
4 3 2 1 1 2 3 3 3 3 2 3 3 3 3 2 2 1 0 1 2 3 4 4 4 4 4 4 3 3 3 2 2 2 2 2 2 1 1 1 1 3 4
3 3 2 1 1 2 2 2 2 2 1 2 3 3 3 3 2 1 1 2 3 3 4 3 3 4 4 4 3 4 3 2 2 1 2 3 3 4 3 2 2 3 4
3 2 2 2 2 3 3 2 2 1 1 2 3 3 3 3 2 2 1 1 2 3 4 4 4 4 5 4 4 3 2 2 2 3 4 4 4 4 3 3 4 3 3
5 4 4 3 3 3 3 3 2 1 2 3 3 3 3 3 3 2 1 1 2 3 4 5 5 4 5 6 5 4 5 5 5 5 5 5 4 4 5 4 5 5 4
5 5 4 3 3 3 2 2 2 2 2 3 3 2 1 2 2 1 1 2 4 4 4 5 6 6 5 6 5 5 6 5 5 5 5 6 7 7 5 4 5 6 4
4 5 4 4 3 3 2 2 1 2 3 4 2 2 2 2 2 2 2 4 4 4 5 6 6 6 6 8 10 7 6 6 6 6 6 6 8 9 9 9 9 8 6
4 4 4 3 2 2 2 2 1 2 3 3 3 3 3 3 3 3 4 4 3 4 5 4 5 5 7 10 11 11 7 7 6 6 6 7 8 9 7 8 10 10 12
5 5 4 2 1 1 2 2 2 3 4 4 3 3 3 3 3 4 4 3 2 3 4 4 4 5 7 9 10 11 8 7 6 6 6 6 8 9 7 7 8 7 7
5 5 4 3 2 2 2 2 3 4 4 4 3 2 3 3 3 3 2 2 3 3 3 3 4 5 6 7 8 8 5 5 5 5 6 6 6 11 11 9 8 9 8
5 4 3 3 3 3 3 3 3 4 5 4 3 2 3 3 3 2 1 1 3 3 4 5 4 5 5 7 6 6 3 4 3 4 5 9 9 11 11 7 7 8 7
6 5 4 4 4 3 4 4 4 4 4 4 4 3 2 3 3 2 1 2 3 4 5 5 4 4 5 7 9 7 4 3 3 4 5 5 12 12 11 7 5 5 5
5 5 4 4 4 4 5 5 5 4 5 5 4 3 2 1 2 3 2 2 4 5 4 4 4 3 4 6 9 12 10 6 4 3 4 5 12 12 12 8 9 11 8
6 5 6 6 4 4 6 6 5 5 5 5 4 2 2 2 2 3 3 2 3 3 3 3 3 2 3 4 8 10 10 9 4 3 7 9 11 10 8 10 11 8 5
6 5 6 6 5 5 6 6 5 5 6 5 4 2 2 2 3 2 2 3 3 4 3 3 3 1 1 2 3 4 4 6 5 5 7 9 9 7 6 7 6 5 4
6 6 7 7 7 6 6 6 6 6 5 5 4 3 3 3 3 3 2 2 1 3 5 4 4 3 2 1 1 2 2 2 3 4 4 4 5 6 5 5 5 5 5
7 7 7 7 7 7 7 6 6 6 6 4 4 3 3 3 3 3 2 4 3 3 4 5 5 3 3 4 1 2 3 4 5 4 3 3 3 3 3 3 4 4 4
Wind_Direction
135 136 148 163 163 195 197 195 183 179 165 156 166 178 209 247 264 262 270 262 233 217 208 220 228 225 223 229 228 228 239 243 230 241 280 282 258 245 238 227 226 259 272
148 153 157 157 165 178 180 175 172 156 146 148 151 153 150 156 132 19 11 356 330 295 265 246 244 238 236 240 236 225 230 241 212 193 220 292 315 301 255 221 212 229 256
158 151 144 145 144 145 152 148 147 127 112 114 110 90 72 49 33 20 6 351 344 326 302 277 260 251 239 241 238 227 224 235 238 199 179 196 234 292 306 245 223 228 243
137 137 135 130 130 133 131 130 126 110 101 94 92 98 105 108 77 351 337 336 343 338 324 302 280 262 248 243 242 234 221 220 233 232 215 200 178 185 289 295 250 231 236
113 119 125 127 127 129 128 127 121 115 107 98 101 100 102 117 115 16 6 354 345 344 340 323 305 283 262 250 244 238 224 216 217 214 208 210 208 190 201 269 299 305 262
88 84 81 99 109 114 117 127 127 126 124 116 112 116 116 104 76 41 18 358 343 343 349 343 333 316 293 265 250 239 226 217 212 209 202 190 187 190 192 232 274 294 292
93 90 78 69 93 105 109 123 127 125 122 112 107 112 113 109 107 99 57 18 353 344 343 348 347 347 342 332 306 253 229 211 201 199 199 197 197 180 182 205 252 282 309
102 106 93 74 69 84 99 107 109 104 104 105 107 104 103 106 100 80 75 41 355 329 329 339 347 357 6 14 17 23 3 4 194 197 196 197 199 181 177 186 196 290 302
112 110 109 100 84 77 76 102 107 103 107 113 114 104 98 95 86 67 50 23 348 326 330 332 341 352 4 14 20 25 15 12 12 358 267 213 204 196 186 186 180 179 259
321 294 152 135 123 107 100 101 113 120 124 127 131 127 116 107 96 75 45 1 327 321 318 319 327 334 341 352 7 7 4 12 359 354 349 334 311 301 252 220 211 201 225
268 266 259 205 145 98 101 110 115 118 128 138 136 131 137 130 111 93 329 300 302 304 303 301 309 316 318 322 332 325 319 332 328 322 322 319 305 305 308 283 246 223 216
253 263 250 209 112 96 87 91 97 103 131 145 139 139 150 144 141 185 272 293 305 308 310 323 336 337 334 321 310 304 307 290 295 319 19 10 17 15 356 336 299 264 236
187 189 182 168 130 104 92 87 77 67 51 102 123 130 140 153 177 215 261 325 348 360 13 34 36 25 11 0 343 340 4 32 55 60 63 43 39 21 355 349 339 314 293
189 175 170 163 141 117 104 95 80 72 72 94 110 127 160 177 193 211 239 8 39 51 49 50 46 36 22 14 9 31 55 62 64 63 58 41 31 12 356 359 348 334 325
197 176 166 157 130 108 93 101 98 76 85 95 93 109 143 156 164 157 89 54 64 72 68 58 40 25 26 14 17 41 58 60 58 50 43 35 21 6 359 354 343 344 343
191 167 157 147 133 121 111 108 111 95 103 105 99 87 97 91 89 103 85 69 70 78 76 66 54 37 25 21 46 62 56 51 48 38 23 25 22 8 12 18 23 24 15
174 156 146 146 149 153 149 153 163 132 121 120 106 90 96 83 71 83 81 78 83 91 86 77 61 42 18 36 60 69 68 59 50 43 35 38 26 21 15 15 19 18 19
161 154 149 153 175 181 175 172 154 140 130 120 114 107 105 100 87 82 79 74 88 100 95 85 67 50 23 42 74 79 73 67 55 46 44 49 34 22 24 26 18 9 6
167 169 171 175 185 192 191 170 155 144 135 133 134 132 126 123 112 98 81 63 79 85 88 89 73 57 23 41 90 93 78 65 48 38 40 43 37 20 32 34 19 12 3
162 168 170 156 166 191 171 152 150 147 152 156 158 144 135 134 137 135 104 66 83 87 89 79 66 63 40 38 77 101 91 67 37 20 22 31 30 24 32 36 26 14 348
177 174 166 164 182 179 147 148 151 160 161 147 130 111 119 143 146 138 113 101 96 90 88 80 56 47 41 41 57 71 81 85 56 28 7 0 10 18 21 29 28 357 344
184 174 162 172 181 164 142 143 153 158 139 127 116 102 88 123 137 130 117 110 114 111 104 91 64 32 25 40 55 61 63 67 62 27 353 347 4 9 8 10 5 11 19
191 176 165 169 176 166 150 151 165 148 132 126 124 116 89 74 110 127 129 121 121 127 129 120 109 60 25 33 50 55 55 55 50 6 358 0 5 3 2 3 9 17 23
186 171 161 165 177 175 164 166 167 152 140 146 152 146 121 92 83 91 111 127 140 144 146 147 144 120 50 27 25 31 31 29 20 359 350 355 1 6 2 5 11 19 26
179 167 167 175 182 178 175 175 167 154 156 165 172 168 151 133 107 87 81 114 131 172 161 167 161 154 167 234 83 63 35 15 356 349 360 4 359 1 1 9 15 18 25
173 169 171 175 181 177 180 184 175 163 161 170 179 177 167 158 146 130 85 52 91 101 134 159 159 176 191 183 165 35 9 354 360 28 6 348 349 355 2 14 18 25 28